Flag for Brazil Weather past 2 weeks in Feira de Santana, Bahia, Brazil

Now
81 °F

Scattered clouds.


Feels Like: 85 °F
Forecast: 65 / 84 °F
Wind: 15 mph from East

Location: Salvador Aeroporto

Current Time: Aug 28, 2014 at 12:42:31 PM

Latest Report: Aug 28, 2014 at 12:00 PM


Visibility: N/A

Pressure: 30.01 "Hg

Humidity: 79%

Dew point: 73 °F

Location of Feira de SantanaLocation

Historic Weather in Feira de Santana — Graph

°F

Feira de Santana temperature yesterday

Maximum temperature yesterday: 79 °F (at 12:00 PM)
Minimum temperature yesterday: 70 °F (at 4:00 AM)
Average temperature yesterday: 75 °F

Past Weeks' High & Low Weather Summary

 TemperatureHumidityPressure
High82 °F (Aug 17, 12:00 PM)100% (Aug 25, 2:00 PM)30.18 "Hg (Aug 25, 2:00 PM)
Low39 °F (Aug 25, 2:00 PM)54% (Aug 23, 3:00 PM)29.95 "Hg (Aug 28, 3:00 AM)
Average76 °F76%30.07 "Hg
* Reported Aug 13 11:00 AM — Aug 28 11:00 AM, Feira de Santana, Weather by CustomWeather, © 2014

Note: Actual official high and low records may vary slightly from our data, if they occured in-between our weather recording intervals... More about our weather records

Advertising

Feira de Santana weather history for previous 24 hours

 ConditionsComfort  
Time TempWeatherWind HumidityBarometerVisibility
11:00 AM
Aug 28
82 °FScattered clouds.14 mph74%30.04 "HgN/A
10:00 AM81 °FScattered clouds.10 mph74%30.04 "HgN/A
9:00 AM81 °FScattered clouds.10 mph74%30.04 "HgN/A
8:00 AM77 °FScattered clouds.5 mph83%30.04 "HgN/A
7:00 AM75 °FScattered clouds.No wind89%30.01 "HgN/A
6:00 AM70 °FScattered clouds.2 mph94%29.98 "HgN/A
5:00 AM70 °FPassing clouds.3 mph94%29.98 "HgN/A
4:00 AM70 °FPassing clouds.2 mph94%29.95 "HgN/A
3:00 AM70 °FPassing clouds.2 mph94%29.95 "HgN/A
2:00 AM73 °FPassing clouds.3 mph83%29.98 "HgN/A
1:00 AM75 °FPassing clouds.9 mph83%30.01 "HgN/A
12:00 AM73 °FPassing clouds.7 mph89%30.01 "HgN/A
11:00 PM
Aug 27
75 °FPassing clouds.8 mph78%30.04 "HgN/A
10:00 PM75 °FPassing clouds.12 mph83%30.04 "HgN/A
9:00 PM75 °FPassing clouds.8 mph83%30.01 "HgN/A
8:00 PM75 °FPassing clouds.9 mph83%30.01 "HgN/A
7:00 PM77 °FPassing clouds.8 mph79%29.98 "HgN/A
6:00 PM77 °FPassing clouds.9 mph79%29.98 "HgN/A
5:00 PM77 °FScattered clouds.8 mph79%29.98 "HgN/A
4:00 PM79 °FBroken clouds.10 mph74%29.98 "HgN/A
3:00 PM79 °FBroken clouds.9 mph74%29.98 "HgN/A
2:00 PM77 °FBroken clouds.8 mph79%29.98 "HgN/A
1:00 PM79 °FBroken clouds.12 mph74%30.01 "HgN/A
12:00 PM79 °FBroken clouds.12 mph79%30.01 "Hg5 mi
Weather by CustomWeather, © 2014

See weather overviewHow to use our weather pages